Regional Weather Roundup
Issued by NWS

Home | Current Version | Previous Version | Text Only | Print | Product List | Glossary Off
Versions: 1 2 3 4 5 6 7 8 9 10 11 12 13 14 15 16 17 18 19 20 21 22 23 24 25 26 27

000
ASUS45 KSLC 230210
RWRUT

UTAH REGIONAL WEATHER ROUNDUP
NATIONAL WEATHER SERVICE SALT LAKE CITY UT
800 PM MDT SAT JUL 22 2017

UTZ001>011-023>025-230300-

NORTHERN UTAH

CITY           SKY/WX    TMP DP  RH WIND       PRES   REMARKS
BRIGHAM CITY   CLEAR     93  25   8 CALM      30.05S
HILL AFB       NOT AVBL
LOGAN          CLEAR     89  43  20 CALM      30.06S
OGDEN          PTCLDY    92  38  15 NW3       30.04S
SALT LAKE CITY CLOUDY    96  40  14 N8        30.02F HX  92
TOOELE VALLEY  MOCLDY    90  52  27 N7        30.05F
WENDOVER       CLEAR     94  41  16 E8        30.02S HX  90
HEBER CITY     MOCLDY    82  39  21 NW5       30.13F
WEST JORDAN    MOCLDY    89  59  36 NW7       30.07S

$$

UTZ011>015-024>027-230300-

CENTRAL/NORTHEAST UTAH

CITY           SKY/WX    TMP DP  RH WIND       PRES   REMARKS
PROVO AIRPORT  MOCLDY    86  63  45 CALM      30.06F
MOAB/CANYONLAN CLEAR     92  43  18 E9        29.99S
DELTA          MOCLDY    88  37  16 NE6       30.06S
PRICE          CLOUDY    81  49  32 NW6       30.16S
RICHFIELD      CLEAR     82  45  26 NE14      30.15R
ROOSEVELT      PTCLDY    88  41  19 CALM      30.12S
VERNAL         CLOUDY    85  51  31 SW5       30.11R

$$

UTZ013>016-019>022-027-230300-

SOUTHERN UTAH

CITY           SKY/WX    TMP DP  RH WIND       PRES   REMARKS
BRYCE CANYON   CLOUDY    75  46  35 SE7       30.31R
CEDAR CITY     CLOUDY    80  47  31 NW9       30.15R
MILFORD        CLOUDY    88  45  22 NE23G30   30.08R
ST GEORGE      MOCLDY   100  48  17 NE5       29.89R HX  96
HANKSVILLE     CLEAR     91  37  15 E9        30.03S
KANAB          CLEAR     86  55  35 CALM      30.10R
BLANDING       CLOUDY    76  51  42 CALM      30.23F

$$

REGIONAL REPORTS     COLORADO/ARIZONA

CITY           SKY/WX    TMP DP  RH WIND       PRES   REMARKS
CRAIG, CO      CLEAR     78  36  21 N5        30.20S
GRAND JUNCTION CLEAR     90  49  24 W5        30.04R
RIFLE, CO      CLOUDY    88  38  17 N8        30.11S
MONTROSE, CO   CLOUDY    78  46  32 SE10      30.18F
CORTEZ, CO     CLOUDY    76  51  41 MISG      30.18S
COLORADO CITY    N/A     88  59  37 CALM      30.09S
PAGE, AZ       PTCLDY    96  45  17 E15       29.99S HX  92
GRAND CANYON   PTCLDY    84  41  21 NE14G20   30.22R
KINGMAN, AZ    NOT AVBL
FLAGSTAFF, AZ  MOCLDY    71  56  58 S7        30.25R

$$

REGIONAL REPORTS    NEVADA/IDAHO/WYOMING

CITY           SKY/WX    TMP DP  RH WIND       PRES   REMARKS
LAS VEGAS, NV  PTCLDY   106  50  15 CALM      29.79S HX 103
ELY, NY        CLOUDY    78  42  27 S7        30.21F
ELKO, NV       MOSUNNY   94  25   8 E6        30.05S
POCATELLO, ID  CLEAR     87  29  12 SW8       30.10F
BURLEY, ID       N/A     78  46  32 SW8       30.07S
FORT BRIDGER,    N/A     84  25  11 NW14G22   30.30S
EVANSTON, WY   CLOUDY    82  32  16 N16       30.28S
ROCK SPRINGS,  CLEAR     83  23  11 E6        30.23F
KEMMERER, WY     N/A    N/A N/A N/A NW9       30.31S

$$




USA.gov is the U.S. government's official web portal to all federal, state and local government web resources and services.